Content
SEND FEEDBACK

Daily
Averages
Monthly
Summary
United States of America

FULTON, ILLINOIS


Home > North America > United States > Illinois
Elevation: 582 feet     Latitude: 41 54N     Longitude: 090 09W

WEATHER
 
SELECT A DAY
Number of Records: 448,693;   Date Range: 1/1/95 - 8/28/14
 
SHARE

PRINT THIS DATA

[ ← Previous Day ]
WEATHER ALMANAC - JANUARY 31, 2013
[ Next Day → ]
[ °C ]   °F
Weather ElementAverageHighLow
Temperature8.2 °F15.8 °F (12:35 am)-0.4 °F (10:35 pm)
Dewpoint0.3 °F10.4 °F (12:55 am)-7.6 °F (9:35 pm)
Humidity70.5 %79 % (12:55 am)61 % (4:35 pm)
Barometer29.98 in30.28 in (11:55 pm)29.77 in (12:35 am)
Wind Speed22 mph26.5 mph (11:35 am)
Wind Gust33.4 mph (4:15 pm)
Weather ElementAverage
Visibility9.2 mi
Wind DirectionWNW (294.8 °)

Weather ElementTotal
Precipitation---
Heating Degree Days57.3 (Base 65)
Averaged from 66 records on January 31, 2013
WEATHER CONDITIONS BREAKOUT
WIND DIRECTION BREAKOUT
WEATHER BY HOUR - JANUARY 31, 2013
[ °C ]   °F
Local TimeTemperatureDewpointHumidityBarometerVisibilityWind DirectionWind SpeedGust SpeedPrecipitationEventsConditions
12:35 AM15.8 °F8.6 °F73 %29.77 in10.0 miWest (280°)18.4 mphMostly Cloudy
12:55 AM15.8 °F10.4 °F79 %29.77 in9.0 miWNW (290°)17.3 mph25.3 mphOvercast
1:15 AM15.8 °F8.6 °F73 %29.77 in10.0 miWNW (290°)17.3 mph26.5 mphOvercast
1:35 AM15.8 °F8.6 °F73 %29.78 in10.0 miWNW (290°)20.7 mphOvercast
1:55 AM15.8 °F8.6 °F73 %29.78 in10.0 miWNW (290°)20.7 mph27.6 mphOvercast
2:15 AM15.8 °F8.6 °F73 %29.79 in10.0 miWNW (290°)23.0 mphOvercast
2:35 AM15.8 °F8.6 °F73 %29.80 in10.0 miWest (280°)20.7 mphOvercast
2:55 AM15.8 °F8.6 °F73 %29.80 in10.0 miWNW (290°)25.3 mph29.9 mphOvercast
3:15 AM15.8 °F8.6 °F73 %29.80 in10.0 miWNW (290°)21.9 mph25.3 mphOvercast
3:35 AM15.8 °F6.8 °F68 %29.80 in8.0 miWNW (290°)24.2 mph28.8 mphOvercast
3:55 AM14.0 °F6.8 °F73 %29.80 in10.0 miWNW (290°)24.2 mph27.6 mphMostly Cloudy
4:15 AM14.0 °F6.8 °F73 %29.81 in10.0 miWNW (290°)21.9 mph26.5 mphMostly Cloudy
4:35 AM10.4 °F3.2 °F73 %29.81 in10.0 miWNW (290°)20.7 mph26.5 mphScattered Clouds
4:55 AM10.4 °F3.2 °F73 %29.83 in10.0 miWNW (290°)19.6 mphMostly Cloudy
5:15 AM10.4 °F3.2 °F73 %29.83 in10.0 miWNW (290°)23.0 mphOvercast
5:35 AM8.6 °F1.4 °F73 %29.84 in10.0 miWNW (290°)21.9 mph25.3 mphMostly Cloudy
5:55 AM8.6 °F1.4 °F73 %29.84 in10.0 miWNW (300°)19.6 mphScattered Clouds
6:15 AM8.6 °F1.4 °F73 %29.85 in10.0 miWNW (290°)19.6 mph24.2 mphMostly Cloudy
6:35 AM8.6 °F1.4 °F73 %29.86 in10.0 miWNW (290°)13.8 mphMostly Cloudy
6:55 AM8.6 °F1.4 °F73 %29.87 in10.0 miWNW (290°)13.8 mphPartly Cloudy
7:15 AM8.6 °F1.4 °F73 %29.87 in10.0 miWNW (300°)17.3 mphClear
7:35 AM8.6 °F1.4 °F73 %29.88 in10.0 miWNW (290°)15.0 mphClear
7:55 AM8.6 °F1.4 °F73 %29.90 in10.0 miWNW (290°)18.4 mph21.9 mphPartly Cloudy
8:15 AM8.6 °F1.4 °F73 %29.90 in10.0 miWNW (290°)17.3 mphMostly Cloudy
8:35 AM8.6 °F1.4 °F73 %29.91 in10.0 miWNW (300°)19.6 mph28.8 mphMostly Cloudy
8:55 AM8.6 °F-0.4 °F67 %29.91 in10.0 miWNW (300°)21.9 mph28.8 mphMostly Cloudy
9:15 AM8.6 °F-0.4 °F67 %29.92 in10.0 miWNW (290°)20.7 mph26.5 mphScattered Clouds
9:35 AM8.6 °F1.4 °F73 %29.93 in10.0 miWNW (300°)21.9 mphScattered Clouds
9:55 AM8.6 °F-0.4 °F67 %29.93 in10.0 miWNW (300°)24.2 mphScattered Clouds
10:15 AM8.6 °F1.4 °F73 %29.95 in10.0 miWNW (300°)23.0 mph27.6 mphPartly Cloudy
10:35 AM8.6 °F1.4 °F73 %29.95 in10.0 miWNW (300°)25.3 mph29.9 mphMostly Cloudy
10:55 AM10.4 °F1.4 °F67 %29.96 in10.0 miWNW (300°)24.2 mph27.6 mphMostly Cloudy
11:15 AM8.6 °F-0.4 °F67 %29.97 in10.0 miWNW (300°)21.9 mphScattered Clouds
11:35 AM10.4 °F3.2 °F73 %29.97 in8.0 miWest (280°)26.5 mph31.1 mphMostly Cloudy
11:55 AM10.4 °F-0.4 °F62 %29.98 in10.0 miWNW (290°)24.2 mph31.1 mphPartly Cloudy
12:15 PM10.4 °F1.4 °F67 %29.99 in5.0 miWNW (300°)21.9 mph31.1 mphScattered Clouds
12:35 PM8.6 °F1.4 °F73 %29.99 in8.0 miWNW (290°)25.3 mph29.9 mphPartly Cloudy
12:55 PM10.4 °F1.4 °F67 %30.00 in7.0 miWNW (290°)25.3 mph29.9 mphPartly Cloudy
1:15 PM8.6 °F-0.4 °F67 %30.00 in9.0 miNW (310°)24.2 mph29.9 mphPartly Cloudy
1:35 PM8.6 °F-0.4 °F67 %30.00 in8.0 miWNW (300°)26.5 mphScattered Clouds
2:15 PM8.6 °F1.4 °F73 %30.01 in8.0 miWNW (290°)26.5 mph32.2 mphMostly Cloudy
2:35 PM8.6 °F-0.4 °F67 %30.02 in8.0 miWNW (290°)24.2 mph32.2 mphMostly Cloudy
2:55 PM8.6 °F1.4 °F73 %30.03 in8.0 miWNW (290°)26.5 mph32.2 mphMostly Cloudy
3:15 PM8.6 °F-0.4 °F67 %30.04 in7.0 miWNW (290°)26.5 mph29.9 mphMostly Cloudy
3:35 PM8.6 °F-0.4 °F67 %30.05 in5.0 miWNW (300°)26.5 mphMostly Cloudy
3:55 PM8.6 °F-0.4 °F67 %30.06 in2.5 miWNW (300°)24.2 mph29.9 mphMostly Cloudy
4:15 PM6.8 °F-2.2 °F67 %30.07 in6.0 miWNW (290°)24.2 mph33.4 mphMostly Cloudy
4:35 PM6.8 °F-4.0 °F61 %30.08 in9.0 miWNW (300°)25.3 mph31.1 mphPartly Cloudy
4:55 PM6.8 °F-2.2 °F67 %30.09 in10.0 miWNW (300°)24.2 mph31.1 mphPartly Cloudy
5:15 PM5.0 °F-5.8 °F61 %30.10 in10.0 miWNW (300°)25.3 mph31.1 mphPartly Cloudy
5:35 PM3.2 °F-4.0 °F72 %30.11 in10.0 miWNW (300°)23.0 mph29.9 mphClear
6:15 PM3.2 °F-5.8 °F66 %30.14 in10.0 miWNW (300°)21.9 mph29.9 mphClear
6:35 PM3.2 °F-5.8 °F66 %30.15 in10.0 miWNW (300°)23.0 mph26.5 mphScattered Clouds
6:55 PM3.2 °F-2.2 °F78 %30.15 in3.0 miWNW (300°)24.2 mph28.8 mphOvercast
7:15 PM3.2 °F-4.0 °F72 %30.16 in7.0 miWNW (300°)24.2 mph27.6 mphOvercast
7:35 PM3.2 °F-5.8 °F66 %30.17 in10.0 miWNW (300°)26.5 mphMostly Cloudy
8:15 PM1.4 °F-5.8 °F72 %30.19 in10.0 miWNW (300°)26.5 mph32.2 mphMostly Cloudy
8:35 PM1.4 °F-5.8 °F72 %30.20 in10.0 miWNW (300°)24.2 mph29.9 mphOvercast
9:15 PM1.4 °F-5.8 °F72 %30.21 in10.0 miWNW (300°)20.7 mph28.8 mphOvercast
9:35 PM1.4 °F-7.6 °F66 %30.22 in10.0 miWNW (300°)19.6 mph23.0 mphScattered Clouds
10:15 PM1.4 °F-7.6 °F66 %30.23 in10.0 miWNW (300°)19.6 mphMostly Cloudy
10:35 PM-0.4 °F-7.6 °F72 %30.25 in10.0 miWNW (300°)19.6 mphMostly Cloudy
10:55 PM-0.4 °F-7.6 °F72 %30.25 in10.0 miWNW (300°)19.6 mphOvercast
11:15 PM-0.4 °F-7.6 °F72 %30.26 in10.0 miWNW (300°)19.6 mphOvercast
11:35 PM-0.4 °F-7.6 °F72 %30.27 in10.0 miWNW (300°)17.3 mphOvercast
11:55 PM-0.4 °F-7.6 °F72 %30.28 in10.0 miWNW (300°)18.4 mphMostly Cloudy
Hourly data recorded from KCWI, located miles away from Fulton, Illinois







STORIES FROM OUR PARTNERS